Asheville, NC

2:47 PM EDT on October 21, 2017 (GMT -0400)
Asheville Regional

Weather History for KAVL - June, 2008

Change the Weather History Date:

Wednesday, June 18, 2008

  Actual Average Record
Temperature  
Mean Temperature 65 °F 71 °F  
Max Temperature 78 °F 82 °F 94 °F (1944)
Min Temperature 52 °F 60 °F 44 °F (1974)
Degree Days  
Heating Degree Days 0 0  
Month to date heating degree days 0 11  
Since 1 June heating degree days 11  
Since 1 July heating degree days 3947 4192  
Cooling Degree Days 0 6  
Month to date cooling degree days 165 90  
Year to date cooling degree days 204 148  
Since 1 June cooling degree days 90  
Growing Degree Days 16 (Base 50)    
Moisture  
Dew Point 45 °F    
Average Humidity 53    
Maximum Humidity 77    
Minimum Humidity 29    
Precipitation  
Precipitation 0.00 in 0.16 in 1.77 in (1914)
Month to date precipitation 0.35 2.76  
Year to date precipitation 15.38 21.01  
Snow  
Snow 0.00 in 0.00 in 0.00 in ()
Month to date snowfall 0.0 0.0  
Since 1 June snowfall 0.0  
Since 1 July snowfall 3.8 9.9  
Snow Depth -    
Sea Level Pressure  
Sea Level Pressure 29.90 in    
Wind  
Wind Speed 8 mph (North)    
Max Wind Speed 20 mph    
Max Gust Speed 24 mph    
Visibility 10 miles    
Events      
T = Trace of Precipitation, MM = Missing Value Source: NWS Daily Summary

Daily Weather History Graph

Daily Weather History Graph

Search for Another Location

Airport or City:

Trip Planner

Search our weather history database for the weather conditions in past years. The results will help you decide how hot, cold, wet, or windy it might be!

Date:

Astronomy

Jun. 18, 2008 Rise Set
Actual Time 6:14 AM EDT 8:48 PM EDT
Civil Twilight 5:44 AM EDT 9:18 PM EDT
Nautical Twilight 5:07 AM EDT 9:55 PM EDT
Astronomical Twilight 4:26 AM EDT 10:36 PM EDT
Moon 9:13 PM EDT (6/18) 5:47 AM EDT (6/18)
Length of Visible Light 15h 33m
Length of Day
14h 33m
Full, 100% of the Moon is Illuminated
Jun 18
Full
Jun 18
Full
Jun 26
Last Quarter
Jul 2
New
Jul 10
First Quarter

Hourly Weather History & Observations

Time (EDT) Temp. Dew Point Humidity Pressure Visibility Wind Dir Wind Speed Gust Speed Precip Events Conditions
12:54 AM 63.0 °F 44.1 °F 50% 29.90 in 10.0 mi North 5.8 mph - N/A   Clear
1:54 AM 61.0 °F 45.0 °F 56% 29.90 in 10.0 mi NNW 6.9 mph - N/A   Clear
2:54 AM 60.1 °F 46.0 °F 60% 29.90 in 10.0 mi North 5.8 mph - N/A   Clear
3:54 AM 59.0 °F 46.0 °F 62% 29.90 in 10.0 mi North 5.8 mph - N/A   Clear
4:54 AM 57.0 °F 46.0 °F 67% 29.91 in 10.0 mi NNE 4.6 mph - N/A   Clear
5:54 AM 55.9 °F 46.0 °F 69% 29.91 in 10.0 mi Calm Calm - N/A   Clear
6:54 AM 54.0 °F 46.9 °F 77% 29.92 in 10.0 mi NNW 5.8 mph - N/A   Clear
7:54 AM 59.0 °F 48.0 °F 67% 29.93 in 10.0 mi North 6.9 mph - N/A   Clear
8:54 AM 63.0 °F 48.0 °F 58% 29.93 in 10.0 mi Variable 6.9 mph - N/A   Clear
9:54 AM 66.9 °F 46.0 °F 47% 29.93 in 10.0 mi North 10.4 mph 18.4 mph N/A   Clear
10:54 AM 69.1 °F 46.0 °F 44% 29.93 in 10.0 mi NNW 12.7 mph - N/A   Clear
11:54 AM 71.1 °F 46.0 °F 41% 29.92 in 10.0 mi North 9.2 mph 20.7 mph N/A   Clear
12:54 PM 73.0 °F 44.1 °F 35% 29.90 in 10.0 mi NNE 9.2 mph - N/A   Clear
1:54 PM 75.9 °F 44.1 °F 32% 29.88 in 10.0 mi North 12.7 mph - N/A   Clear
2:54 PM 75.9 °F 43.0 °F 31% 29.87 in 10.0 mi NNE 10.4 mph 17.3 mph N/A   Clear
3:54 PM 77.0 °F 43.0 °F 30% 29.86 in 10.0 mi NNW 13.8 mph 17.3 mph N/A   Clear
4:54 PM 77.0 °F 42.1 °F 29% 29.85 in 10.0 mi NNW 11.5 mph - N/A   Clear
5:54 PM 75.0 °F 41.0 °F 29% 29.85 in 10.0 mi North 13.8 mph 21.9 mph N/A   Clear
6:54 PM 73.9 °F 42.1 °F 32% 29.86 in 10.0 mi NNW 15.0 mph 20.7 mph N/A   Clear
7:54 PM 72.0 °F 42.1 °F 34% 29.87 in 10.0 mi North 9.2 mph - N/A   Clear
8:54 PM 68.0 °F 43.0 °F 40% 29.89 in 10.0 mi NNW 6.9 mph - N/A   Partly Cloudy
9:54 PM 64.0 °F 45.0 °F 50% 29.90 in 10.0 mi North 3.5 mph - N/A   Partly Cloudy
10:54 PM 63.0 °F 45.0 °F 52% 29.92 in 10.0 mi NNW 5.8 mph - N/A   Scattered Clouds
11:54 PM 63.0 °F 45.0 °F 52% 29.92 in 10.0 mi North 4.6 mph - N/A   Partly Cloudy